Regional Weather Roundup
Issued by NWS

Home | Current Version | Previous Version | Text Only | Print | Product List | Glossary Off
Versions: 1 2 3 4 5 6 7 8 9 10 11 12 13 14 15 16 17 18 19 20 21 22 23 24 25 26 27 28 29 30 31 32 33 34 35 36 37 38 39 40 41 42 43 44 45 46 47 48 49 50

000
ASUS45 KPSR 190300
RWRAZ

ARIZONA REGIONAL HOURLY WEATHER ROUNDUP
NATIONAL WEATHER SERVICE PHOENIX AZ
800 PM MST SAT APR 18 2015

NOTE: FAIR INDICATES FEW OR NO CLOUDS BELOW 12,000 FEET WITH NO
SIGNIFICANT WEATHER AND/OR OBSTRUCTIONS TO VISIBILITY.

AZZ001>003-036-190400-
NORTHWEST ARIZONA

CITY           SKY/WX    TMP DP  RH WIND       PRES   REMARKS
KINGMAN        CLEAR     66  11  11 CALM      29.93R
$$

AZZ004>008-015-016-018-190400-
NORTH CENTRAL ARIZONA

CITY           SKY/WX    TMP DP  RH WIND       PRES   REMARKS
GRAND CANYON   CLEAR     40  13  33 CALM      30.07R
WILLIAMS       CLEAR     52  14  22 NW3       30.13R
PRESCOTT       CLEAR     62  13  14 SW13      29.99R
FLAGSTAFF      NOT AVBL
PAYSON         PTCLDY    63  16  16 SW8       30.02R
PAGE           PTCLDY    69  24  18 N7        29.92R
$$

AZZ009>014-017-190400-
NORTHEAST ARIZONA

CITY           SKY/WX    TMP DP  RH WIND       PRES   REMARKS
WINSLOW        NOT AVBL
SAINT JOHNS    CLEAR     51  15  23 W8        29.98R
WINDOW ROCK    CLEAR     49  17  28 NE5       30.03R
SHOW LOW       PTCLDY    50  21  32 S6        30.05R
$$

AZZ023-190400-
GREATER PHOENIX AREA

CITY           SKY/WX    TMP DP  RH WIND       PRES   REMARKS
PHOENIX        CLEAR     82  17   9 SW7       29.79R
DEER VALLEY    CLEAR     80  15   8 SW10      29.81R
SCOTTSDALE     CLEAR     82  13   7 SW8       29.83R
MESA-GATEWAY   CLEAR     77  21  12 SW6       29.85R
$$

AZZ027-028-190400-
SOUTHWEST MARICOPA COUNTY AND PINAL COUNTY

CITY           SKY/WX    TMP DP  RH WIND       PRES   REMARKS
CASA GRANDE    CLEAR     73  18  12 CALM      29.84R
$$

AZZ503-504-507>509-190400-
SOUTHEAST ARIZONA

CITY           SKY/WX    TMP DP  RH WIND       PRES   REMARKS
TUCSON         CLEAR     73  15  11 NW5       29.93R
RYAN FIELD       N/A     73  18  12 N3        29.92R
NOGALES        CLEAR     63  19  18 N7        29.98S
SIERRA VISTA   CLEAR     59  17  19 W10       30.03R
SAFFORD        CLEAR     69  16  13 W10       29.89R
$$

AZZ020-021-025-026-031-190400-
SOUTHWEST ARIZONA

CITY           SKY/WX    TMP DP  RH WIND       PRES   REMARKS
YUMA           NOT AVBL
$$

CAZ031-033-041-043-047-048-061-190400-
SOUTHERN CALIFORNIA

CITY           SKY/WX    TMP DP  RH WIND       PRES   REMARKS
DOWNTOWN L.A.  CLEAR     64  52  64 W5        29.93R
L.A. AIRPORT   PTCLDY    60  55  83 W13       29.94S
SAN DIEGO      PTCLDY    67  54  63 NW5       29.96R
BURBANK        CLEAR     68  43  40 S6        29.92S
ONTARIO        PTCLDY    71  47  42 SW9       29.92S
RIVERSIDE      CLEAR     72  41  32 W5        29.93R
PALM SPRINGS   CLEAR     86  28  12 NW17G23   29.81R
EL CENTRO NAS  CLEAR     83  23  11 SW12      29.79R
IMPERIAL       CLEAR     82  36  19 SW10      29.79R
BLYTHE         CLEAR     86  18   8 SW12      29.78R
$$

NVZ020-UTZ003-190400-
SOUTHERN NEVADA-UTAH

CITY           SKY/WX    TMP DP  RH WIND       PRES   REMARKS
LAS VEGAS      NOT AVBL
SALT LAKE CITY PTCLDY    59  35  40 NW3       29.97R
$$

NMZ009-TXZ055-190400-
NEW MEXICO-WEST TEXAS

CITY           SKY/WX    TMP DP  RH WIND       PRES   REMARKS
ALBUQUERQUE    PTCLDY    57  24  28 NW13      29.97R
EL PASO        PTCLDY    71  17  12 W22G31    29.89R
$$


........................KEY........................
SKY/WX - SKY CONDITION/WEATHER
TMP    - TEMPERATURE IN FAHRENHEIT
DP     - DEW POINT IN FAHRENHEIT
RH     - RELATIVE HUMIDITY IN PERCENT
WIND   - DIRECTION AND SPEED IN MILES PER HOUR (MPH)
VRB    - VARIABLE WIND DIRECTION
PRES   - MEAN SEA LEVEL PRESSURE IN INCHES OF MERCURY
         F - FALLING PRESSURE   R - RISING PRESSURE
         S - STEADY PRESSURE
VSB    - VISIBILITY IN MILES
HX     - HEAT INDEX IN FAHRENHEIT
WCI    - WIND CHILL INDEX IN FAHRENHEIT
TC     - TEMPERATURE IN CELSIUS WHICH IS ALSO KNOWN AS
         TEMPERATURE IN CENTIGRADE
AFB    - AIR FORCE BASE
         LUKE AFB IS LUKE AIR FORCE BASE
         DAVIS-MONTHAN IS DAVIS-MONTHAN AIR FORCE BASE
NAS    - NAVAL AIR STATION
         EL CENTRO NAS IS EL CENTRO NAVAL AIR STATION
N/A    - NOT AVAILABLE



USA.gov is the U.S. government's official web portal to all federal, state and local government web resources and services.